Location: Aranbee
(34.0885°N, 118.2342°W)
Time: 15:51:15
(UTC+00:00)

deb Explorer IX - Visible Passes

Search period start: 26 November 2020 00:00
Search period end: 06 December 2020 00:00
Orbit: 538 x 1104 km, 38.8° (Epoch: 25 November)

Date Brightness Start Highest point End Pass type
(mag) Time Alt. Az. Time Alt. Az. Time Alt. Az.
26 Nov ? 02:28:19 10° W 02:33:41 62° NNW 02:34:33 52° NNE visible
27 Nov ? 02:04:52 10° W 02:10:26 62° NNW 02:12:33 33° NE visible
27 Nov ? 03:52:55 10° WNW 03:53:51 15° WNW 03:53:51 15° WNW visible
28 Nov ? 01:41:23 10° W 01:47:09 63° NNW 01:50:33 20° ENE visible
28 Nov ? 03:29:30 10° WNW 03:31:50 24° WNW 03:31:50 24° WNW visible
29 Nov ? 01:17:54 10° W 01:23:52 64° NNW 01:28:33 12° ENE visible
29 Nov ? 03:06:04 10° WNW 03:09:50 38° NW 03:09:50 38° NW visible
30 Nov ? 02:42:37 10° WNW 02:47:51 51° N 02:47:51 51° N visible
01 Dec ? 02:19:08 10° WNW 02:24:42 52° N 02:25:53 43° NE visible
01 Dec ? 04:06:45 10° WNW 04:07:10 12° WNW 04:07:10 12° WNW visible
02 Dec ? 01:55:38 10° WNW 02:01:24 53° N 02:03:57 28° ENE visible
02 Dec ? 03:43:19 10° WNW 03:45:15 22° WNW 03:45:15 22° WNW visible
03 Dec ? 01:32:06 10° WNW 01:38:05 54° N 01:42:05 16° ENE visible
03 Dec ? 03:19:51 10° WNW 03:23:23 39° WNW 03:23:23 39° WNW visible
04 Dec ? 01:08:34 10° WNW 01:14:44 55° N 01:19:58 10° E visible
04 Dec ? 02:56:22 10° WNW 03:01:35 73° W 03:01:35 73° W visible
05 Dec ? 02:32:51 10° WNW 02:38:44 82° SSW 02:39:52 56° SE visible
